Location: Frankfurt+(oder)
(51.7984°N, 12.2168°E)
Time: 14:47:48
(UTC+02:00)

ISS - Pass Details

Date: 28 March 2017
Orbit: 399 x 409 km, 51.6° (Epoch: 30 March)

Event Time Altitude Azimuth Distance (km) Brightness Sun altitude
Rises 20:57:21 0° 210° (SSW) 2,303 0.1 -12.6°
Reaches altitude 10° 20:59:46 10° 193° (SSW) 1,451 -1.1 -13.0°
Enters shadow 21:01:53 19° 152° (SSE) 1,027 -2.2 -13.3°
